sat.trackr.live / text

‹ back to catalog

STARLINK-30039

NORAD 57468 · 2023-107M

PAYLOAD ACTIVE UNKNOWN

§ Identity

Operator
Country
US
Launch date
2023-07-28
Launch site
AFETR
Launch vehicle
Mass (kg)
RCS (m²)

Purposes: comms

External: N2YO · Heavens-Above · Gunter

§ Orbital elements

Epoch: 2026-05-25T01:20:17.151648Z

Period
94.27 min
Inclination
42.9976°
Eccentricity
0.0000502
Mean motion
15.27582269 rev/d
Perigee alt
482.7 km
Apogee alt
483.4 km
Semi-major
6,861.2 km
B*
5.5438e-5
RAAN
265.0606°
Arg perigee
50.3947°
Mean anomaly
309.6948°
Rev number
15,682

§ Raw data

STARLINK-300391 57468U 23107M   26145.05575407  .00001264  00000+0  55438-4 0  99952 57468  42.9976 265.0606 0000502  50.3947 309.6948 15.27582269156827

JSON: /api/v1/satellites/57468 · /tle

For live sub-satellite position, see the globe view (requires WebGL).

§ Visibility from observer

Set your observer location to see the next 7 days of passes ≥ 10°. The values pass through the URL so the page stays shareable.

No JS? Fill the form by hand. The geolocation button needs JavaScript.